SCP
0 0 0 0 0 0 0 0 0 0 0 0 0 0 0 0 0 0 0 0 0 0 0 0 0 0 0 0 0 0 0 0 0 0 0 0 0 0 1 2 2 2 2 2
0 0 0 0 0 0 0 0 0 0 0 0 0 0 0 0 0 0 0 0 0 0 0 0 0 0 0 0 0 0 0 0 0 0 0 0 0 0 1 2 2 2 2 2
0 0 0 0 0 0 0 0 0 0 0 0 0 0 0 0 0 0 0 0 0 0 0 0 0 0 0 0 0 0 0 0 0 0 0 0 0 1 1 1 2 2 1 2
0 0 0 0 0 0 0 0 0 0 0 0 0 0 0 0 0 0 0 0 0 0 0 0 0 0 0 0 0 0 0 0 0 0 0 0 0 1 1 1 1 1 1 1
0 0 0 0 0 0 0 0 0 0 0 0 0 0 0 0 0 0 0 0 0 0 0 0 0 0 0 0 0 0 0 0 0 0 0 0 0 0 1 1 1 1 1 1
0 0 0 0 0 0 0 0 0 0 0 0 0 0 0 0 0 0 0 0 0 0 0 0 0 0 0 0 0 0 0 0 0 0 0 0 0 0 1 1 1 1 1 1
0 0 0 0 0 0 0 0 0 0 0 0 0 0 0 0 0 0 0 0 0 0 0 0 0 0 0 0 0 0 0 0 0 0 0 0 0 0 0 0 1 1 1 1
0 0 0 0 0 0 0 0 0 0 0 0 0 0 0 0 0 0 0 0 0 0 0 0 0 0 0 0 0 0 0 0 0 0 0 0 0 0 0 0 0 1 1 1
0 0 0 0 0 0 0 0 0 0 0 0 0 0 0 0 0 0 0 0 0 0 0 0 0 0 0 0 0 0 0 0 0 0 0 0 0 0 0 0 0 0 1 1
0 0 0 0 0 0 0 0 0 0 0 0 0 0 0 0 0 0 0 0 0 0 0 0 0 0 0 0 0 0 0 0 0 0 0 0 0 0 0 0 0 0 0 0
0 0 0 0 0 0 0 0 0 0 0 0 0 0 0 0 0 0 0 0 0 0 0 0 0 0 0 0 0 0 0 0 0 1 1 0 0 0 0 0 0 0 0 0
0 0 0 0 0 0 0 0 0 0 0 0 0 0 0 0 0 0 0 0 0 0 0 0 0 0 0 0 0 0 0 0 0 0 0 0 0 0 0 0 0 0 0 0
0 0 0 0 0 0 0 0 0 0 0 0 0 0 0 0 0 0 0 0 0 0 0 0 0 0 0 0 0 0 0 0 0 0 0 0 0 0 0 0 0 0 0 0
0 0 0 0 0 0 0 0 0 0 0 0 0 0 0 0 0 0 0 0 0 0 0 0 0 0 0 0 0 0 0 0 0 0 0 0 0 0 0 0 0 0 0 0
0 0 0 0 0 0 0 0 0 0 0 0 0 0 0 0 0 0 0 0 0 0 0 0 0 0 0 0 0 0 0 0 0 0 0 0 0 0 0 0 0 0 0 0
0 0 0 0 0 0 0 0 0 0 0 0 0 0 0 0 0 0 0 0 0 0 0 0 0 0 0 0 0 0 0 0 0 0 0 0 0 0 0 0 0 0 0 0
0 0 0 0 0 0 0 0 0 0 0 0 0 0 0 0 0 0 0 0 0 0 0 0 0 0 0 0 0 0 0 0 0 0 0 0 0 0 0 0 0 0 0 0
0 0 0 0 0 0 0 0 0 0 0 0 0 0 0 0 0 0 0 0 0 0 0 0 0 0 0 0 0 0 0 0 0 0 0 0 0 0 0 0 0 0 0 0
0 0 0 0 0 0 0 0 0 0 0 0 0 0 0 0 0 0 0 0 0 0 0 0 0 0 0 0 0 0 0 0 0 0 0 0 0 0 0 0 0 0 0 0
0 0 0 0 0 0 0 0 0 0 0 0 0 0 0 0 0 0 0 0 0 0 0 0 0 0 0 0 0 0 0 0 0 0 0 0 0 0 0 0 0 0 0 0
0 0 0 0 0 0 0 0 0 0 0 0 0 0 0 0 0 0 0 0 0 0 0 0 0 0 0 0 0 0 0 0 0 0 0 0 0 0 0 0 0 0 0 0
0 0 0 0 0 0 0 0 0 0 0 0 0 0 0 0 0 0 0 0 0 0 0 0 0 0 0 0 0 0 0 0 0 0 0 0 0 0 0 0 0 0 0 0
0 0 0 0 0 0 0 0 0 0 0 0 0 0 0 0 0 0 0 0 0 0 0 0 0 0 0 0 0 0 0 0 0 0 0 0 0 0 0 0 0 0 0 0
0 0 0 0 0 0 0 0 0 0 0 0 0 0 0 0 0 0 0 0 0 0 0 0 0 0 0 0 0 0 0 0 0 0 0 0 0 0 0 0 0 0 0 0
0 0 0 0 0 0 0 0 0 0 0 0 0 0 0 0 0 0 0 0 0 0 0 0 0 0 0 0 0 0 0 0 0 0 0 0 0 0 0 0 0 0 0 0
0 0 0 0 0 0 0 0 0 0 0 0 0 0 0 0 0 0 0 0 0 0 0 0 0 0 0 0 0 0 0 0 0 0 0 0 0 0 0 0 0 0 0 0
0 0 0 0 0 0 0 0 0 0 0 0 0 0 0 0 0 0 0 0 0 0 0 0 0 0 0 0 0 0 0 0 0 0 0 0 0 0 0 0 0 0 0 0
Wind_Speed
12 13 8 7 9 11 10 9 11 12 9 4 8 10 11 12 13 14 14 13 13 13 12 10 11 10 11 10 11 10 9 10 11 10 8 12 15 14 13 11 12 15 14 11
13 8 5 3 11 10 8 9 9 6 3 6 10 10 13 14 14 16 16 15 16 15 16 13 12 12 14 12 12 13 15 15 14 12 12 13 13 13 14 11 9 12 15 13
10 4 9 1 10 9 4 5 6 4 7 13 15 13 16 17 16 15 15 17 18 19 19 18 18 16 17 15 15 14 12 14 12 8 12 13 12 12 14 13 10 10 14 14
9 11 8 6 6 5 6 2 2 2 10 13 16 16 18 18 15 15 18 20 20 20 20 20 20 20 20 20 18 18 17 17 18 15 16 16 13 11 13 12 10 9 11 14
7 9 6 4 7 10 12 12 8 9 15 18 20 21 18 14 16 19 20 21 21 21 22 22 21 21 20 20 19 19 18 18 19 19 16 17 15 13 13 12 12 10 8 10
7 9 4 7 10 12 10 9 6 16 21 22 23 20 16 18 18 20 22 22 22 22 23 22 20 20 20 19 20 20 20 18 17 18 16 16 14 12 12 12 13 13 9 6
8 7 6 8 13 13 11 15 20 22 23 23 20 20 22 22 22 23 24 24 25 24 20 18 17 17 19 20 19 20 19 17 17 18 16 15 13 12 12 13 13 13 13 8
7 7 4 9 13 11 15 19 22 23 23 23 23 22 23 24 25 24 25 26 25 20 18 18 17 17 18 19 17 17 17 15 17 19 17 14 13 12 12 13 14 13 12 10
6 6 6 8 13 14 16 21 23 22 22 23 24 26 27 26 25 25 26 25 24 22 22 21 19 15 18 19 16 16 15 14 16 19 18 15 14 13 12 13 12 13 9 8
7 5 9 15 16 17 18 21 23 23 24 23 25 28 27 25 25 24 24 24 24 20 18 19 19 16 19 19 16 14 16 18 13 13 16 13 13 12 12 13 11 10 6 7
11 9 15 16 18 20 20 21 23 24 23 25 26 26 27 25 26 24 24 24 24 19 18 20 19 19 21 18 17 16 16 14 12 10 12 13 13 11 12 11 7 6 5 7
11 15 17 20 20 20 21 22 23 24 26 25 25 26 28 25 25 24 24 26 25 20 19 21 21 21 18 18 14 14 13 12 11 10 9 9 10 12 15 12 4 7 11 10
13 16 18 21 21 22 23 23 24 25 26 26 25 26 28 26 25 27 27 27 24 19 20 22 22 22 20 16 15 13 12 11 9 9 8 8 10 11 11 9 6 6 9 12
13 16 19 19 22 22 24 24 25 26 26 25 25 26 27 26 27 27 25 24 20 19 21 22 22 18 16 13 12 11 12 11 9 7 9 11 12 11 11 9 9 7 6 6
14 16 19 21 21 22 23 23 24 24 26 26 25 26 27 27 27 27 25 20 19 21 21 21 19 18 15 13 13 10 8 6 5 5 8 8 9 11 9 8 7 7 9 6
16 17 18 20 22 24 24 24 24 25 26 27 26 26 27 27 27 24 21 20 20 20 21 21 18 16 13 13 9 7 5 6 6 6 7 9 11 10 7 6 7 8 10 12
17 18 21 21 22 23 24 24 25 26 27 26 27 28 28 27 26 22 21 21 20 18 20 18 15 15 13 10 8 4 4 5 7 6 7 10 9 7 6 7 7 7 6 7
15 18 20 22 21 22 23 24 24 25 24 26 26 27 27 25 24 24 23 22 20 18 16 14 12 14 11 8 5 1 1 1 1 5 6 5 4 4 4 5 5 5 4 9
15 17 18 20 20 20 22 22 22 23 23 24 24 24 24 24 23 23 23 20 18 16 16 17 22 17 11 7 3 1 0 2 2 2 2 3 4 5 6 3 0 3 4 6
15 16 18 20 20 20 21 21 21 21 23 24 22 22 23 23 23 22 21 18 13 13 17 19 17 11 8 4 1 1 2 1 3 4 3 4 5 5 5 4 8 10 10 12
15 16 17 19 20 20 19 19 20 21 23 24 23 23 24 24 22 21 18 15 16 16 17 17 12 8 6 4 3 2 3 2 2 3 5 6 6 6 6 7 6 9 13 14
14 14 16 18 19 19 19 19 19 22 22 22 21 22 22 22 21 21 21 16 16 17 13 8 6 5 5 6 4 2 3 3 2 2 3 3 4 4 2 3 5 11 11 11
12 13 15 16 17 18 18 18 20 21 21 20 20 20 19 20 17 16 18 19 17 19 13 7 5 0 4 4 2 3 3 3 3 2 2 3 2 1 1 3 9 12 11 12
11 12 13 14 15 16 17 19 19 18 19 20 19 19 18 17 17 17 17 21 24 21 11 7 7 4 3 2 2 2 0 3 3 4 4 2 0 1 3 6 9 11 11 13
10 11 11 13 13 13 15 17 18 17 18 17 18 18 16 14 16 18 16 18 24 21 15 16 17 12 6 3 1 1 1 1 2 2 5 4 4 5 6 7 9 9 10 10
9 8 9 10 10 11 12 13 14 15 15 14 16 15 14 13 14 15 15 16 18 17 14 12 12 12 9 7 5 5 5 5 6 5 6 6 7 7 7 8 9 7 8 8
6 6 7 9 9 10 11 12 13 14 14 15 14 14 14 14 15 15 15 15 14 13 12 12 14 15 13 11 9 6 4 4 3 6 8 8 8 8 8 9 7 7 7 7
Wind_Direction
284 290 286 300 357 346 329 334 316 345 27 33 341 313 296 290 291 290 288 283 279 279 278 279 280 273 260 239 231 225 221 235 261 271 272 278 291 302 298 293 274 255 242 234
286 286 288 80 33 6 17 356 342 352 32 340 309 286 273 272 271 274 278 277 278 275 277 280 276 277 279 265 258 246 237 235 227 233 255 268 272 276 283 289 291 271 244 228
298 348 278 137 29 16 38 20 351 348 316 311 300 286 282 290 289 288 297 300 306 311 310 310 308 296 297 294 288 285 279 281 280 264 271 272 278 291 294 297 301 292 259 230
302 299 297 77 51 24 2 227 141 332 287 270 272 288 299 296 298 310 310 309 310 308 307 306 304 300 294 289 288 286 287 288 293 289 284 281 280 280 283 289 294 286 269 239
317 320 107 115 21 352 321 275 222 276 302 313 318 309 299 325 338 320 315 311 309 306 305 305 302 299 296 291 286 278 275 283 289 286 283 278 271 271 279 289 288 275 258 258
343 315 348 50 353 325 292 275 235 301 322 322 318 307 317 329 316 309 309 308 307 305 303 298 298 297 294 291 290 286 285 287 283 276 275 274 271 271 270 274 279 281 263 248
343 322 69 21 342 325 299 328 327 319 318 315 311 307 308 308 307 309 309 308 305 301 299 301 302 302 296 292 289 289 287 287 290 279 273 263 257 259 263 268 273 281 279 253
329 323 353 3 343 335 320 319 317 315 313 312 310 305 303 306 308 309 308 306 306 305 302 304 304 299 294 289 286 289 289 290 290 280 272 263 256 258 258 262 265 268 270 256
321 324 330 321 324 312 322 318 315 312 312 312 309 307 308 309 309 309 306 304 305 307 310 308 300 294 290 286 285 278 274 281 283 277 268 265 262 259 254 247 248 260 263 254
309 294 306 315 314 323 324 317 315 313 310 311 309 309 308 309 309 306 303 303 303 307 302 297 293 287 279 282 282 275 277 281 276 271 276 265 258 252 252 253 241 249 261 239
276 310 317 309 325 326 317 315 314 313 311 310 311 310 310 311 311 310 307 304 306 307 298 295 294 289 291 288 279 272 270 275 267 249 261 271 261 257 262 257 248 264 243 232
316 322 314 315 321 317 317 319 317 317 314 312 311 310 311 312 312 309 309 307 306 306 299 295 294 289 288 287 279 266 267 267 266 259 241 247 268 263 242 244 208 226 230 210
302 310 311 311 314 319 319 318 317 315 312 313 314 314 313 313 310 310 308 307 311 311 302 297 294 295 300 300 294 283 266 255 246 240 242 245 254 260 246 197 171 205 217 197
316 317 314 316 320 320 319 318 316 316 316 316 316 316 314 311 309 309 310 315 316 309 300 297 296 301 306 314 302 294 281 256 235 227 241 240 233 233 229 208 182 184 197 185
321 319 316 320 320 320 321 320 319 319 320 319 319 319 317 314 312 311 317 319 311 306 302 298 296 302 312 306 302 298 279 246 222 236 238 237 241 223 202 207 196 175 158 177
317 317 322 323 323 323 323 324 323 322 322 322 322 321 318 316 314 317 319 312 310 311 307 302 297 298 306 301 306 311 291 245 238 253 237 227 222 201 178 195 194 194 178 169
320 324 326 326 326 325 326 326 325 324 323 325 323 321 321 321 322 319 315 312 310 309 306 302 299 302 302 291 288 276 269 263 232 227 223 221 204 176 169 194 199 186 171 154
321 323 327 328 326 325 326 326 325 325 326 323 323 324 326 326 320 316 315 313 311 307 306 310 311 322 321 311 298 235 240 312 217 215 194 183 160 146 173 179 172 169 160 158
326 326 325 325 326 326 326 325 328 327 325 325 328 330 326 320 316 315 317 318 322 322 327 330 334 339 337 357 9 32 259 170 207 220 177 161 163 155 125 114 163 237 202 167
326 328 326 324 328 328 326 329 329 328 329 329 332 330 323 319 319 320 321 323 333 335 327 332 341 349 342 41 17 43 82 123 179 181 178 193 185 140 121 211 236 226 197 181
330 330 327 328 328 328 330 331 332 332 330 335 338 330 322 320 323 324 328 328 333 336 331 331 335 349 355 7 292 211 138 149 157 154 167 180 162 153 183 224 230 154 147 160
330 331 329 327 326 329 331 331 335 333 336 339 334 326 322 324 329 329 332 336 330 337 332 327 334 346 339 330 318 323 98 113 134 154 153 145 130 136 207 256 149 135 148 161
328 330 328 327 329 328 329 337 337 338 342 338 329 326 328 327 330 331 333 333 335 338 341 354 359 222 243 253 254 255 129 144 155 142 117 89 55 56 267 163 141 135 152 165
327 331 328 328 330 331 337 339 337 342 346 339 332 335 341 336 333 338 335 332 336 341 346 10 3 344 293 298 300 292 128 124 123 115 97 70 41 170 133 141 139 136 150 168
328 326 327 334 332 337 335 341 341 344 350 338 339 345 347 344 336 330 336 337 337 345 352 12 14 11 17 19 29 358 355 21 42 97 130 153 168 159 153 135 125 132 143 151
323 325 330 330 334 337 337 347 342 348 345 340 343 345 344 343 340 338 337 339 340 345 354 8 22 22 25 32 49 64 91 129 150 164 143 147 143 130 116 111 118 126 126 132
312 320 327 329 346 341 342 343 347 348 343 346 338 345 348 343 343 343 341 342 346 344 355 11 22 30 27 28 31 39 70 96 128 129 125 117 110 115 121 121 123 129 131 135